Location: La Chapelle
(48.3135°N, 1.3085°W)
Time: 08:48:24
(UTC+00:00)

HJ-1C - Pass Details

Date: 03 March 2021
Orbit: 428 x 441 km, 97.1° (Epoch: 12 April)

Event Time Altitude Azimuth Distance (km) Brightness Sun altitude
Rises 18:32:30 0° 151° (SSE) 2,417 6.8 -7.4°
Reaches altitude 10° 18:34:34 10° 145° (SE) 1,550 5.8 -7.8°
Maximum altitude 18:37:43 43° 73° (ENE) 631 3.7 -8.3°
Drops below altitude 10° 18:40:54 10° 0° (N) 1,556 6.1 -8.8°
Sets 18:42:59 0° 354° (N) 2,428 7.2 -9.2°
